Flag for U.S.A. Weather past 2 weeks in Fort Collins, Colorado, U.S.A.

Now
45 °F

Clear.


Feels Like: 41 °F
Forecast: 41 / 69 °F
Wind: 6 mph from South

Location: Fort Collins-Loveland Municipal Airport

Current Time: Mar 27, 2015 at 1:21:15 AM

Latest Report: Mar 27, 2015 at 12:55 AM


Visibility: 10 mi

Pressure: 30.20 "Hg

Humidity: 53%

Dew point: 28 °F

Location of Fort CollinsLocation

Historic Weather in Fort Collins — Graph

°F

Fort Collins temperature yesterday

Maximum temperature yesterday: 61 °F (at 3:15 PM)
Minimum temperature yesterday: 27 °F (at 5:55 AM)
Average temperature yesterday: 44 °F

Past Weeks' High & Low Weather Summary

 TemperatureHumidityPressure
High81 °F (Mar 15, 3:55 PM)100% (Mar 26, 4:35 AM)30.45 "Hg (Mar 26, 4:35 AM)
Low27 °F (Mar 26, 5:55 AM)11% (Mar 15, 3:55 PM)29.76 "Hg (Mar 23, 4:55 PM)
Average49 °F49%30.13 "Hg
* Reported Mar 12 12:15 AM — Mar 27 12:15 AM, Fort Collins, Weather by CustomWeather, © 2015

Note: Actual official high and low records may vary slightly from our data, if they occured in-between our weather recording intervals... More about our weather records

Advertising

Fort Collins weather history for previous 24 hours

 ConditionsComfort  
Time TempWeatherWind HumidityBarometerVisibility
12:15 AM
Fri, Mar 27
45 °FPassing clouds.6 mph53%30.20 "Hg10 mi
11:55 PM
Thu, Mar 26
46 °FClear.7 mph50%30.21 "Hg10 mi
11:35 PM46 °FPassing clouds.5 mph50%30.22 "Hg10 mi
11:15 PM46 °FPassing clouds.No wind50%30.21 "Hg10 mi
10:55 PM46 °FPartly cloudy.No wind50%30.22 "Hg10 mi
10:35 PM48 °FPassing clouds.6 mph43%30.20 "Hg10 mi
9:55 PM48 °FPassing clouds.8 mph43%30.18 "Hg10 mi
9:15 PM50 °FPassing clouds.13 mph40%30.16 "Hg10 mi
8:55 PM52 °FPassing clouds.15 mph38%30.15 "Hg10 mi
8:35 PM54 °FPassing clouds.8 mph35%30.15 "Hg10 mi
8:15 PM54 °FPartly sunny.3 mph35%30.14 "Hg10 mi
7:55 PM54 °FScattered clouds.6 mph35%30.14 "Hg10 mi
7:35 PM54 °FSunny.3 mph35%30.14 "Hg10 mi
7:15 PM55 °FSunny.5 mph33%30.13 "Hg10 mi
6:55 PM57 °FPassing clouds.12 mph31%30.13 "Hg10 mi
6:35 PM59 °FPassing clouds.10 mph29%30.13 "Hg10 mi
6:15 PM57 °FPartly sunny.6 mph31%30.13 "Hg10 mi
5:55 PM57 °FPartly sunny.No wind33%30.12 "Hg10 mi
5:35 PM57 °FScattered clouds.3 mph33%30.12 "Hg10 mi
5:15 PM59 °FSunny.No wind29%30.12 "Hg10 mi
4:55 PM61 °FSunny.3 mph27%30.11 "Hg10 mi
4:35 PM59 °FPassing clouds.3 mph29%30.11 "Hg10 mi
4:15 PM59 °FPassing clouds.5 mph29%30.11 "Hg10 mi
3:55 PM59 °FSunny.No wind29%30.11 "Hg10 mi
3:15 PM61 °FSunny.7 mph29%30.12 "Hg10 mi
2:55 PM57 °FSunny.7 mph31%30.12 "Hg10 mi
2:35 PM59 °FSunny.6 mph29%30.13 "Hg10 mi
2:15 PM57 °FSunny.5 mph31%30.14 "Hg10 mi
1:55 PM57 °FSunny.9 mph31%30.15 "Hg10 mi
1:35 PM57 °FSunny.3 mph33%30.16 "Hg10 mi
1:15 PM55 °FSunny.5 mph36%30.17 "Hg10 mi
12:55 PM55 °FSunny.5 mph36%30.18 "Hg10 mi
12:35 PM55 °FSunny.10 mph36%30.18 "Hg10 mi
12:15 PM55 °FSunny.7 mph36%30.19 "Hg10 mi
11:55 AM54 °FSunny.5 mph38%30.19 "Hg10 mi
11:35 AM52 °FSunny.9 mph50%30.19 "Hg10 mi
11:15 AM52 °FSunny.5 mph50%30.19 "Hg10 mi
10:55 AM48 °FSunny.6 mph62%30.20 "Hg10 mi
10:35 AM48 °FSunny.7 mph62%30.20 "Hg10 mi
10:15 AM45 °FSunny.6 mph66%30.20 "Hg10 mi
9:55 AM43 °FSunny.6 mph81%30.20 "Hg10 mi
9:35 AM39 °FSunny.5 mph87%30.21 "Hg10 mi
9:15 AM37 °FSunny.6 mph93%30.21 "Hg10 mi
8:55 AM36 °FSunny.6 mph93%30.21 "Hg10 mi
8:35 AM34 °FSunny.5 mph87%30.21 "Hg10 mi
8:15 AM30 °FSunny.8 mph93%30.21 "Hg10 mi
7:55 AM30 °FSunny.5 mph93%30.22 "Hg10 mi
7:35 AM28 °FClear.6 mph93%30.22 "Hg10 mi
7:15 AM28 °FPassing clouds.7 mph93%30.21 "Hg8 mi
6:55 AM30 °FLow clouds.No wind93%30.22 "Hg0 mi
6:35 AM28 °FLow clouds.6 mph93%30.22 "Hg0 mi
6:15 AM28 °FLow clouds.No wind93%30.22 "Hg0 mi
5:55 AM27 °FLow clouds.No wind93%30.21 "Hg0 mi
5:35 AM28 °FLow clouds.No wind93%30.21 "Hg0 mi
5:15 AM28 °FLow clouds.No wind93%30.20 "Hg0 mi
4:55 AM28 °FLow clouds.No wind100%30.19 "Hg0 mi
4:35 AM28 °FLow clouds.No wind100%30.19 "Hg0 mi
4:15 AM30 °FLow clouds.3 mph93%30.19 "Hg0 mi
3:55 AM30 °FLow clouds.5 mph93%30.20 "Hg0 mi
3:35 AM30 °FLow clouds.5 mph93%30.21 "Hg0 mi
3:15 AM30 °FLow clouds.6 mph93%30.21 "Hg0 mi
2:55 AM30 °FLow clouds.7 mph93%30.22 "Hg0 mi
2:35 AM30 °FLow clouds.6 mph93%30.23 "Hg0 mi
2:15 AM28 °FPassing clouds.6 mph93%30.23 "Hg1 mi
1:55 AM30 °FClear.6 mph93%30.23 "Hg7 mi
1:35 AM30 °FClear.7 mph93%30.22 "Hg10 mi
1:15 AM32 °FClear.3 mph87%30.22 "Hg10 mi
Weather by CustomWeather, © 2015

See weather overviewHow to use our weather pages